NK0V Weather Reports


Display with metric or nautical units.
time (UTC)temp
F
wind
direction
speed
MPH
gust
MPH
rain 1hr
in
rain 24hr
in
rain mn
in
humidity
%
barometer
mb
20260503013058 63 178 4.0 9.0 0.00 0.00 0.00 30 1008.9
20260503012559 63 180 3.0 11.0 0.00 0.00 0.00 30 1008.9
20260503012056 63 186 3.0 11.0 0.00 0.00 0.00 29 1009.0
20260503011603 64 212 4.0 11.0 0.00 0.00 0.00 29 1009.0
20260503011057 64 221 5.0 12.0 0.00 0.00 0.00 29 1009.1
20260503010559 64 205 6.0 12.0 0.00 0.00 0.00 28 1009.2
20260503010109 64 227 4.0 12.0 0.00 0.00 0.00 28 1009.3
20260503005559 64 196 5.0 12.0 0.00 0.00 0.00 28 1009.4
20260503005059 65 201 6.0 12.0 0.00 0.00 0.00 27 1009.5
20260503004559 65 201 4.0 12.0 0.00 0.00 0.00 27 1009.6
20260503004059 65 231 5.0 12.0 0.00 0.00 0.00 27 1009.6
20260503003559 65 221 6.0 15.0 0.00 0.00 0.00 27 1009.6
20260503003113 65 237 4.0 16.0 0.00 0.00 0.00 27 1009.8
20260503002558 65 221 10.0 18.0 0.00 0.00 0.00 26 1009.8
20260503002058 65 253 8.0 19.0 0.00 0.00 0.00 25 1010.0
20260503001619 65 219 10.0 19.0 0.00 0.00 0.00 25 1010.0
20260503001103 65 217 9.0 22.0 0.00 0.00 0.00 26 1010.1
20260503000555 66 235 10.0 22.0 0.00 0.00 0.00 26 1010.3
20260503000121 66 219 8.0 20.0 0.00 0.00 0.00 26 1010.5
20260502235556 66 240 10.0 18.0 0.00 0.00 0.00 27 1010.5
20260502235059 66 244 8.0 19.0 0.00 0.00 0.00 27 1010.6
20260502234622 66 229 9.0 22.0 0.00 0.00 0.00 27 1010.8
20260502234102 66 217 9.0 22.0 0.00 0.00 0.00 26 1010.8
20260502233559 66 232 11.0 21.0 0.00 0.00 0.00 25 1010.9
20260502233104 66 251 10.0 22.0 0.00 0.00 0.00 27 1010.9
20260502232558 66 220 11.0 22.0 0.00 0.00 0.00 28 1010.9
20260502232058 66 257 13.0 22.0 0.00 0.00 0.00 28 1010.9
20260502231609 66 236 9.0 20.0 0.00 0.00 0.00 28 1011.0
20260502231056 66 246 8.0 21.0 0.00 0.00 0.00 29 1011.1
20260502230559 66 228 12.0 21.0 0.00 0.00 0.00 27 1011.1
20260502230058 66 225 11.0 20.0 0.00 0.00 0.00 28 1011.3
20260502225558 66 230 8.0 24.0 0.00 0.00 0.00 27 1011.3
20260502225056 66 223 10.0 24.0 0.00 0.00 0.00 28 1011.3
20260502224559 66 196 12.0 24.0 0.00 0.00 0.00 27 1011.4
20260502224056 66 218 7.0 25.0 0.00 0.00 0.00 29 1011.5
20260502223557 66 231 10.0 25.0 0.00 0.00 0.00 28 1011.4
20260502223059 66 227 11.0 20.0 0.00 0.00 0.00 28 1011.5
20260502222559 67 218 10.0 22.0 0.00 0.00 0.00 28 1011.5
20260502222056 66 189 10.0 22.0 0.00 0.00 0.00 29 1011.5
20260502221556 66 183 10.0 27.0 0.00 0.00 0.00 29 1011.5
20260502221058 66 217 13.0 27.0 0.00 0.00 0.00 28 1011.6
20260502220559 66 213 10.0 21.0 0.00 0.00 0.00 29 1011.6
20260502220059 66 224 10.0 21.0 0.00 0.00 0.00 29 1011.6
20260502215555 66 190 11.0 22.0 0.00 0.00 0.00 30 1011.7
20260502215056 66 239 11.0 23.0 0.00 0.00 0.00 29 1011.8
20260502214601 66 213 11.0 23.0 0.00 0.00 0.00 29 1012.0
20260502214056 66 217 9.0 24.0 0.00 0.00 0.00 29 1011.9
20260502213556 66 216 11.0 24.0 0.00 0.00 0.00 29 1012.0
20260502213055 66 247 9.0 21.0 0.00 0.00 0.00 30 1012.3
20260502212556 65 236 11.0 21.0 0.00 0.00 0.00 28 1012.3
20260502212056 65 230 9.0 19.0 0.00 0.00 0.00 28 1012.4
20260502211556 65 212 8.0 21.0 0.00 0.00 0.00 31 1012.5
20260502211056 66 209 10.0 21.0 0.00 0.00 0.00 28 1012.8
20260502210555 66 219 11.0 20.0 0.00 0.00 0.00 27 1013.1
20260502210056 67 257 7.0 20.0 0.00 0.00 0.00 29 1013.2
20260502205555 67 231 9.0 24.0 0.00 0.00 0.00 29 1013.4
20260502205056 67 246 11.0 24.0 0.00 0.00 0.00 29 1013.6
20260502204610 66 234 8.0 19.0 0.00 0.00 0.00 31 1013.6
20260502204059 66 283 9.0 19.0 0.00 0.00 0.00 28 1013.7
20260502203559 66 223 9.0 18.0 0.00 0.00 0.00 31 1013.7
20260502203114 66 229 8.0 18.0 0.00 0.00 0.00 31 1013.6
20260502202559 67 227 9.0 23.0 0.00 0.00 0.00 29 1013.6
20260502202056 67 227 8.0 23.0 0.00 0.00 0.00 29 1013.7
20260502201556 67 202 10.0 22.0 0.00 0.00 0.00 31 1013.9
20260502201056 67 205 8.0 19.0 0.00 0.00 0.00 32 1013.9
20260502200557 67 227 9.0 22.0 0.00 0.00 0.00 31 1013.8
20260502200058 67 204 8.0 22.0 0.00 0.00 0.00 34 1013.8
20260502195555 67 238 8.0 19.0 0.00 0.00 0.00 32 1014.0
20260502195054 67 235 8.0 19.0 0.00 0.00 0.00 31 1014.0
20260502194600 67 233 10.0 19.0 0.00 0.00 0.00 32 1014.2
20260502194056 66 227 10.0 17.0 0.00 0.00 0.00 32 1014.2
20260502193556 66 233 8.0 17.0 0.00 0.00 0.00 33 1014.5
20260502193057 67 242 7.0 16.0 0.00 0.00 0.00 33 1014.6
20260502192557 67 250 7.0 18.0 0.00 0.00 0.00 33 1014.7
20260502192058 66 233 9.0 18.0 0.00 0.00 0.00 33 1014.9
20260502191600 66 232 7.0 18.0 0.00 0.00 0.00 32 1014.9
20260502191058 66 219 7.0 18.0 0.00 0.00 0.00 34 1015.1
20260502190555 66 219 10.0 18.0 0.00 0.00 0.00 32 1015.2
20260502190057 66 248 9.0 16.0 0.00 0.00 0.00 32 1015.2
20260502185558 66 261 6.0 18.0 0.00 0.00 0.00 34 1015.2
20260502185058 66 247 9.0 18.0 0.00 0.00 0.00 33 1015.4
20260502184601 66 204 8.0 16.0 0.00 0.00 0.00 34 1015.5
20260502184056 66 218 5.0 16.0 0.00 0.00 0.00 33 1015.6
20260502183557 66 247 7.0 16.0 0.00 0.00 0.00 34 1015.6
20260502183057 66 223 9.0 16.0 0.00 0.00 0.00 32 1015.8
20260502182556 65 267 8.0 16.0 0.00 0.00 0.00 34 1015.9
20260502182057 65 252 7.0 16.0 0.00 0.00 0.00 32 1015.9
20260502181615 65 284 8.0 16.0 0.00 0.00 0.00 33 1016.0
20260502181101 65 225 8.0 16.0 0.00 0.00 0.00 37 1016.2
20260502180555 64 276 9.0 14.0 0.00 0.00 0.00 34 1016.2
20260502170105 63 253 9.0 18.0 0.00 0.00 0.00 35 1016.9
20260502164056 62 232 6.0 14.0 0.00 0.00 0.00 38 1017.1
20260502163556 61 250 7.0 14.0 0.00 0.00 0.00 38 1017.2
20260502163104 61 247 7.0 14.0 0.00 0.00 0.00 38 1017.2
20260502162556 61 265 6.0 16.0 0.00 0.00 0.00 42 1017.4
20260502162056 61 252 8.0 16.0 0.00 0.00 0.00 39 1017.4
20260502161559 61 213 5.0 14.0 0.00 0.00 0.00 41 1017.5
20260502161056 60 259 7.0 14.0 0.00 0.00 0.00 40 1017.5
20260502160556 60 248 5.0 13.0 0.00 0.00 0.00 42 1017.6
20260502152056 55 242 5.0 11.0 0.00 0.00 0.00 45 1017.9
20260502151604 55 178 5.0 15.0 0.00 0.00 0.00 47 1018.0
20260502151058 54 244 7.0 15.0 0.00 0.00 0.00 46 1018.1
20260502150555 54 248 6.0 13.0 0.00 0.00 0.00 48 1018.1
20260502140105 43 157 5.0 9.0 0.00 0.00 0.00 62 1018.3
20260502130555 34 229 3.0 6.0 0.00 0.00 0.00 76 1018.8
20260502130104 34 213 2.0 6.0 0.00 0.00 0.00 77 1018.8
20260502123555 31 215 1.0 5.0 0.00 0.00 0.00 80 1018.9
20260502123056 30 216 1.0 4.0 0.00 0.00 0.00 80 1018.8
20260502122556 30 183 1.0 4.0 0.00 0.00 0.00 79 1018.9
20260502122056 29 201 0.0 4.0 0.00 0.00 0.00 78 1018.9
20260502121558 29 0 0.0 3.0 0.00 0.00 0.00 78 1019.0
20260502121056 29 0 0.0 2.0 0.00 0.00 0.00 77 1018.9
20260502120559 28 0 0.0 2.0 0.00 0.00 0.00 77 1019.0
20260502120105 28 0 0.0 2.0 0.00 0.00 0.00 77 1019.0
20260502115556 28 0 0.0 2.0 0.00 0.00 0.00 76 1019.1
20260502115056 28 144 0.0 2.0 0.00 0.00 0.00 76 1018.9
20260502114558 28 144 0.0 2.0 0.00 0.00 0.00 76 1018.9
20260502114056 28 143 1.0 2.0 0.00 0.00 0.00 76 1018.9
20260502113556 28 143 1.0 2.0 0.00 0.00 0.00 77 1018.9
20260502113059 28 143 1.0 3.0 0.00 0.00 0.00 76 1018.9
20260502112557 28 143 1.0 4.0 0.00 0.00 0.00 76 1018.9
20260502112057 28 160 2.0 4.0 0.00 0.00 0.00 76 1018.8
20260502111557 28 167 1.0 3.0 0.00 0.00 0.00 76 1018.8
20260502111055 28 167 1.0 3.0 0.00 0.00 0.00 76 1018.9
20260502110558 29 167 2.0 3.0 0.00 0.00 0.00 76 1018.9
20260502110100 29 167 2.0 3.0 0.00 0.00 0.00 76 1018.9
20260502105559 29 167 1.0 3.0 0.00 0.00 0.00 76 1019.0
20260502105057 29 167 1.0 3.0 0.00 0.00 0.00 76 1018.9
20260502104558 29 167 1.0 3.0 0.00 0.00 0.00 76 1019.0
20260502104056 29 167 1.0 3.0 0.00 0.00 0.00 76 1019.0
20260502103556 29 167 1.0 3.0 0.00 0.00 0.00 76 1019.1
20260502103100 29 167 2.0 3.0 0.00 0.00 0.00 76 1019.2
20260502102556 29 167 1.0 3.0 0.00 0.00 0.00 76 1019.3
20260502102055 29 167 1.0 3.0 0.00 0.00 0.00 76 1019.3
20260502101557 29 167 0.0 1.0 0.00 0.00 0.00 75 1019.2
20260502101057 29 0 0.0 3.0 0.00 0.00 0.00 76 1019.4
20260502100557 29 167 0.0 3.0 0.00 0.00 0.00 76 1019.3
20260502100104 29 167 0.0 3.0 0.00 0.00 0.00 76 1019.4
20260502091059 30 0 0.0 0.0 0.00 0.00 0.00 73 1019.4
20260502090559 30 0 0.0 0.0 0.00 0.00 0.00 73 1019.3
20260502080108 31 221 1.0 4.0 0.00 0.00 0.00 72 1019.1
20260502071056 32 196 2.0 6.0 0.00 0.00 0.00 70 1019.5
20260502070556 32 182 0.0 3.0 0.00 0.00 0.00 70 1019.4
20260502070056 32 0 0.0 1.0 0.00 0.00 0.00 70 1019.5
20260502065556 32 0 0.0 1.0 0.00 0.00 0.00 70 1019.4
20260502065057 32 0 0.0 1.0 0.00 0.00 0.00 70 1019.5
20260502064602 33 38 0.0 1.0 0.00 0.00 0.00 70 1019.5
20260502064055 33 0 0.0 0.0 0.00 0.00 0.00 70 1019.6
20260502063556 33 0 0.0 0.0 0.00 0.00 0.00 70 1019.6
20260502063055 33 0 0.0 0.0 0.00 0.00 0.00 70 1019.7
20260502062556 33 0 0.0 0.0 0.00 0.00 0.00 69 1019.7
20260502062056 34 0 0.0 0.0 0.00 0.00 0.00 69 1019.6
20260502061557 34 0 0.0 0.0 0.00 0.00 0.00 69 1019.7
20260502061056 34 0 0.0 0.0 0.00 0.00 0.00 68 1019.7
20260502060556 34 0 0.0 0.0 0.00 0.00 0.00 68 1019.7
20260502060055 34 0 0.0 0.0 0.00 0.00 0.00 68 1019.8
20260502055558 34 0 0.0 0.0 0.00 0.00 0.00 67 1019.9
20260502055058 34 0 0.0 0.0 0.00 0.00 0.00 67 1019.9
20260502054559 35 0 0.0 0.0 0.00 0.00 0.00 67 1019.9
20260502054101 35 0 0.0 0.0 0.00 0.00 0.00 67 1019.8
20260502053559 35 0 0.0 1.0 0.00 0.00 0.00 67 1019.9
20260502053055 35 0 0.0 1.0 0.00 0.00 0.00 66 1019.9
20260502052600 35 0 0.0 0.0 0.00 0.00 0.00 66 1019.9
20260502052057 36 0 0.0 0.0 0.00 0.00 0.00 66 1019.9
20260502051556 36 0 0.0 0.0 0.00 0.00 0.00 66 1019.9
20260502051057 36 0 0.0 0.0 0.00 0.00 0.00 66 1019.9
20260502050556 36 0 0.0 0.0 0.00 0.00 0.00 66 1019.9
20260502050058 37 0 0.0 0.0 0.00 0.00 0.00 66 1019.9
20260502045555 37 0 0.0 0.0 0.00 0.00 0.00 66 1020.0
20260502045058 37 0 0.0 0.0 0.00 0.00 0.00 65 1019.9
20260502044556 37 0 0.0 0.0 0.00 0.00 0.00 63 1019.9
20260502044100 38 0 0.0 0.0 0.00 0.00 0.00 63 1019.9
20260502043557 38 0 0.0 0.0 0.00 0.00 0.00 62 1020.1
20260502043059 38 0 0.0 1.0 0.00 0.00 0.00 63 1020.1
20260502042557 38 0 0.0 2.0 0.00 0.00 0.00 63 1020.1
20260502042058 38 0 0.0 2.0 0.00 0.00 0.00 63 1020.2
20260502041556 38 38 0.0 2.0 0.00 0.00 0.00 63 1020.2
20260502041057 38 38 1.0 2.0 0.00 0.00 0.00 63 1020.2
20260502040558 38 38 0.0 2.0 0.00 0.00 0.00 63 1020.1
20260502040107 39 0 0.0 2.0 0.00 0.00 0.00 62 1020.1
20260502035556 39 38 1.0 2.0 0.00 0.00 0.00 62 1020.2
20260502035056 39 38 0.0 2.0 0.00 0.00 0.00 61 1020.2
20260502034557 39 38 1.0 2.0 0.00 0.00 0.00 61 1020.2
20260502034056 39 38 1.0 2.0 0.00 0.00 0.00 60 1020.2
20260502033555 40 38 0.0 2.0 0.00 0.00 0.00 60 1020.2
20260502033100 40 38 0.0 2.0 0.00 0.00 0.00 60 1020.1
20260502032556 40 0 0.0 2.0 0.00 0.00 0.00 59 1020.1
20260502032056 40 0 0.0 2.0 0.00 0.00 0.00 58 1020.0
20260502031619 41 0 0.0 2.0 0.00 0.00 0.00 57 1020.0
20260502031056 41 0 0.0 2.0 0.00 0.00 0.00 56 1020.1
20260502030556 41 0 0.0 2.0 0.00 0.00 0.00 56 1019.9
20260502030100 41 38 1.0 2.0 0.00 0.00 0.00 56 1019.9
20260502025555 42 38 0.0 2.0 0.00 0.00 0.00 56 1019.9
20260502025055 42 38 1.0 2.0 0.00 0.00 0.00 56 1019.8
20260502024557 42 38 0.0 2.0 0.00 0.00 0.00 55 1019.8
20260502024056 43 38 0.0 2.0 0.00 0.00 0.00 54 1019.8
20260502023557 43 38 0.0 1.0 0.00 0.00 0.00 53 1019.7
20260502023059 43 0 0.0 2.0 0.00 0.00 0.00 52 1019.7
20260502022555 44 0 0.0 2.0 0.00 0.00 0.00 52 1019.7
20260502022055 44 38 0.0 2.0 0.00 0.00 0.00 51 1019.6
20260502021558 44 35 0.0 2.0 0.00 0.00 0.00 51 1019.7
20260502021055 45 33 0.0 2.0 0.00 0.00 0.00 51 1019.6
20260502020556 45 32 0.0 2.0 0.00 0.00 0.00 50 1019.5
20260502020112 46 31 0.0 2.0 0.00 0.00 0.00 50 1019.4
20260502015559 46 27 1.0 3.0 0.00 0.00 0.00 49 1019.4
20260502015058 46 0 1.0 4.0 0.00 0.00 0.00 48 1019.3
20260502014557 47 12 1.0 4.0 0.00 0.00 0.00 48 1019.4
20260502014058 47 26 2.0 4.0 0.00 0.00 0.00 47 1019.3
20260502013559 47 25 1.0 4.0 0.00 0.00 0.00 47 1019.4